星链-34243 (STARLINK-34243)

导读 | 星芒AI

STARLINK-34243 是 SpaceX 星链计划中的一颗低轨通信卫星,属于星链第三代组网的一部分。该卫星于2024年发射,旨在为全球用户提供高速、低延迟的互联网服务。它运行在约550公里高的近地轨道,采用先进推进系统和激光通信技术,以提高网络效率和稳定性。星链项目致力于构建覆盖全球的卫星互联网网络,特别是在偏远和网络基础设施薄弱地区。

基本信息
目录编号:
64361
目录名称:
STARLINK-34243
国际标识:
2025-126T
轨道中心:
EARTH
卫星名称:
星链-34243
卫星全名:
星链-34243 (STARLINK-34243)
卫星状态:
在轨 (已飞行149 天)
发射日期:
2025-06-13 UTC
国别 :
美国 (US)
星等 :
--
轨道信息
数据来源 国际轨道数据 AOE轨道数据
星历时间 2025-11-08T20:53:54+0800
22小时前
查看轨道信息
2025-11-05T00:00:00+0800
4天前
查看轨道信息
半长轴 6950.182km 6950.096km
偏心率 0.0003157 0.0003192
轨道倾角 70.001° 70.001°
近地点辐角 271.817° 273.197°
升交点赤经 339.957° 349.716°
平近点角 88.263° 94.005°
近地点 569.852km 569.742km
远地点 574.242km 574.18km
周期 96.107分钟 96.105分钟
每日圈数 14.983336 14.983616
详细信息
固有亮度:
5
最大亮度:
2.5
卫星平台:
Starlink V1.0
覆盖范围:
全球
运营商:
太空探索技术公司
运营商所在国:
美国
制造商(研发单位):
太空探索技术公司
制造商所在国:
美国
使用方式:
暂无
卫星简介
Starlink 计划是 SpaceX 推出的全球卫星互联网项目,通过发射低轨道卫星,为全球尤其是偏远地区提供高速、低延迟的互联网服务。自 2019 年起,Starlink 已部署数千颗卫星,旨在缩小全球数字鸿沟,推动互联网普及。该项目还为军事、航空等行业提供通信支持,带来广泛经济效益。
2D轨道图
3D轨道图
轨道高度分析图
轨道倾角分析图
轨道综合分析图
查看轨道综合分析图